sat.trackr.live / text

‹ back to catalog

STARLINK-3324

NORAD 50814 · 2022-001M

PAYLOAD ACTIVE UNKNOWN

§ Identity

Operator
Country
US
Launch date
2022-01-06
Launch site
AFETR
Launch vehicle
Mass (kg)
RCS (m²)

Purposes: comms

External: N2YO · Heavens-Above · Gunter

§ Orbital elements

Epoch: 2026-05-25T03:32:19.800096Z

Period
95.44 min
Inclination
53.2127°
Eccentricity
0.0001115
Mean motion
15.08836169 rev/d
Perigee alt
539.0 km
Apogee alt
540.5 km
Semi-major
6,917.9 km
B*
1.2209e-9
RAAN
185.8900°
Arg perigee
83.4689°
Mean anomaly
276.6430°
Rev number
24,195

§ Raw data

STARLINK-33241 50814U 22001M   26145.14745139 -.00000288  00000+0  12209-8 0  99952 50814  53.2127 185.8900 0001115  83.4689 276.6430 15.08836169241953

JSON: /api/v1/satellites/50814 · /tle

For live sub-satellite position, see the globe view (requires WebGL).

§ Visibility from observer

Set your observer location to see the next 7 days of passes ≥ 10°. The values pass through the URL so the page stays shareable.

No JS? Fill the form by hand. The geolocation button needs JavaScript.